Preview of NWS' New Version of Forecast
This preview is not operational and should not be used for support decisions.
Latest weather observations around

Kenai, Kenai Municipal Airport (PAEN)

Using International System of Units (Switch to English Units)
Date/ Time (AKDT) Wind (kph) Vis. (km) Weather Sky Cond. Temp (°C) Rel. Humidity Wind Chill (°C) Heat Index (°C) Pressure Precip. (cm)
Air Dwpt 6 hour Altimeter (hPa) Sea level (hPa) 1 hr 3 hr 6 hr
Max Min
May 24 12:53 SW 13 16.09 Mostly Clear FEW085 12 4     57%     1024.1 1024.4      
May 24 11:53 Calm 16.09 Cloudy SCT070 OVC085 11 4     61%     1024.1 1024.2      
May 24 10:53 W 13 16.09 Cloudy OVC070 12 4     59%     1024.1 1024.3      
May 24 09:53 WSW 8 16.09 Cloudy OVC060 11 3     59%     1024.1 1024.2      
May 24 08:53 Calm 16.09 Cloudy BKN070 OVC085 10 3     63%     1023.7 1023.6      
May 24 07:53 SSE 8 16.09 Cloudy FEW065 OVC095 9 4     69% 8   1023 1023.1      
May 24 06:53 Calm 16.09 Cloudy BKN085 OVC100 8 4     74%     1022.7 1022.9      
May 24 05:53 Calm 16.09 Cloudy OVC070 8 3     71%     1022.7 1022.7      
May 24 04:53 SSE 9 16.09 Cloudy OVC070 8 3     71% 7   1022.4 1022.5      
May 24 03:53 S 18 16.09 Cloudy BKN060 OVC080 8 3     71% 5   1022 1022.1      
May 24 02:53 S 17 16.09 Cloudy OVC075 8 3     71% 6   1021.7 1022      
May 24 01:53 S 15 16.09 Cloudy OVC085 8 4     74% 6   1021.7 1021.8      
May 24 00:53 SSW 21 16.09 Cloudy BKN100 OVC120 8 4     76% 5   1021 1021.2      
May 23 23:53 SSW 18 16.09 Cloudy BKN080 OVC100 8 5     82% 5   1020.7 1020.8      
May 23 22:53 SW 17 16.09 Partly Cloudy SCT120 9 3     68% 6   1020 1020.1      
May 23 21:53 SSW 22 16.09 Mostly Cloudy BKN060 BKN080 10 4     66%     1019.3 1019.3      
May 23 20:53 NNW 13 16.09 Clear CLR 13 3     52%     1018 1018.1      
May 23 19:53   16.09 Mostly Cloudy BKN110 14 3     47%     1017.6 1017.5      
May 23 18:53 N 22 16.09 Cloudy OVC100 16 3     42%     1016.9 1017.1      
May 23 17:53 N 21 16.09 Cloudy BKN080 OVC100 16 3     41%     1016.6 1016.8      
May 23 16:53 N 21 16.09 Mostly Cloudy BKN075 BKN100 15 2     41%     1016.3 1016.5      
May 23 15:53 N 22 16.09 Cloudy SCT070 OVC100 15 2     41%     1016.3 1016.3      
May 23 14:53 N 21 16.09 Cloudy OVC070 14 1     42%     1015.9 1016.3      
May 23 13:53 N 21 16.09 Cloudy FEW070 OVC090 14 1     40%     1015.9 1016.1      
May 23 12:53 NNE 22 16.09 Cloudy OVC090 13 1     43%     1015.6 1015.7      
May 23 11:53 NNE 18 16.09 Cloudy OVC090 13 1     45%     1015.6 1015.8      
May 23 10:53 NE 21 16.09 Cloudy OVC100 12 2     49%     1015.2 1015.6      
May 23 09:53 NE 21 16.09 Mostly Cloudy BKN095 12 2     49%     1015.2 1015.3      
May 23 08:53 ENE 21 16.09 Cloudy OVC090 10 2     56%     1014.9 1015.2      
May 23 07:53 NNE 11 16.09 Mostly Cloudy BKN095 8 1     60% 6   1014.9 1015      
May 23 06:53 NE 17 16.09 Clear CLR 7 1     63% 4   1014.9 1015      
May 23 05:53 NE 13 16.09 Mostly Clear FEW095 6 -1     62% 3   1014.9 1015.1      
May 23 04:53 ENE 17 16.09 Clear CLR 7 -1     58% 4   1014.9 1015      
May 23 03:53 ENE 13 16.09 Clear CLR 7 -1     60% 4   1015.2 1015.3      
May 23 02:53 E 15 16.09 Clear CLR 8 0     58% 5   1014.9 1015.1      
May 23 01:53 E 21 16.09 Mostly Cloudy BKN080 9 -1     51% 6   1014.9 1014.9      
May 23 00:53 E 22 16.09 Clear CLR 9 -1     48% 6   1014.9 1015      
May 22 23:53 ENE 17 16.09 Clear CLR 9 -2     47% 6   1014.9 1015      
May 22 22:53 ENE 15 16.09 Clear CLR 9 -2     46% 7   1014.9 1015      
May 22 21:53 E 26 16.09 Partly Cloudy SCT095 11 -2     42%     1015.2 1015.2      
May 22 20:53 E 21 16.09 Cloudy OVC100 12 -1     41%     1015.2 1015.4      
May 22 19:53 ESE 18 16.09 Cloudy OVC100 12 -2     39%     1015.6 1015.8      
May 22 18:53 SSW 9 16.09 Cloudy OVC100 11 -1     46%     1015.6 1015.7      
May 22 17:53 S 15 16.09 Cloudy OVC100 12 -1     40%     1015.9 1016      
May 22 16:53 S 17 16.09 Clear CLR 13 -1     38%     1015.9 1016      
May 22 15:53 S 18 16.09 Clear CLR 14 -2     34%     1015.9 1016.1      
May 22 14:53   16.09 Clear CLR 13 1     43%     1015.9 1016.2      
May 22 14:15   16.09 Clear CLR 16 3     42%     1015.6        
May 22 13:53 NNE 18 16.09 Clear CLR 17 3     41%     1015.6 1015.9      
May 22 12:53 N 24 16.09 Clear CLR 15 3     45%     1015.9 1016.3      
May 22 11:53 N 13 16.09 Clear CLR 15 3     45%     1016.6 1016.9      
May 22 10:53 E 13 16.09 Clear CLR 13 2     47%     1017.3 1017.3      
May 22 09:53 N 8 16.09 Clear CLR 12 3     55%     1017.6 1017.8      
May 22 08:53 NW 5 16.09 Clear CLR 10 3     63%     1018.3 1018.5      
May 22 07:53 Calm 16.09 Clear CLR 8 3     71%     1019 1019.1      
May 22 06:53 Calm 16.09 Clear CLR 4 1     82%     1019 1019.2      
May 22 05:53 Calm 16.09 Clear CLR 2 0     88%     1019.3 1019.6      
May 22 04:53 Calm 16.09 Clear CLR 2 -1     82%     1019.7 1019.8      
May 22 03:53 Calm 16.09 Mostly Clear FEW050 3 0     82%     1020 1020.1      
May 22 02:53 SSW 8 16.09 Clear CLR 6 2     76% 4   1020.3 1020.4      
May 22 01:53 SW 5 16.09 Mostly Clear FEW055 5 3     86% 4   1020 1020.3      
May 22 00:53 Calm 16.09 Partly Cloudy SCT060 7 3     76%     1020 1020.3      
May 21 23:53 SSW 13 16.09 Cloudy OVC060 7 3     74% 5   1019.7 1019.9      
May 21 22:53 S 17 16.09 Mostly Cloudy BKN060 8 3     73% 5   1020 1020.2      
May 21 21:53 SSW 17 16.09 Clear CLR 8 4     79% 5   1019.7 1019.8      
May 21 20:53 SW 17 16.09 Clear CLR 9 3     68% 6   1019.7 1019.7      
May 21 19:53 SW 22 16.09 Clear CLR 9 3     63% 6   1019.7 1020      
May 21 18:53 SW 17 16.09 Clear CLR 11 2     56%     1019.7 1019.8      
May 21 17:53 SW 17 16.09 Clear CLR 10 2     58%     1019.3 1019.6      
May 21 16:53 WSW 18 16.09 Clear CLR 11 2     56%     1019.3 1019.6      
May 21 15:53 WSW 17 16.09 Clear CLR 11 2     54%     1019.3 1019.5      
May 21 14:53 SW 21 16.09 Mostly Cloudy BKN055 11 3     59%     1019.3 1019.3      
May 21 13:53 SSW 21 16.09 Mostly Cloudy BKN055 11 3     59%     1019 1019.2      
May 21 12:53 SSW 21 16.09 Mostly Cloudy SCT060 BKN080 10 3     63%     1018.6 1019      
May 14 13:53 SSW 22 16.09 Partly Cloudy SCT090 9 3     63% 6   1011.9 1012.1      
May 14 02:53 S 13 16.09 Cloudy OVC110 6 1     70% 3   1008.1 1008.4      
May 13 11:53 N 24 16.09 Mostly Clear FEW030 9 1     58% 6   1011.9 1012.1      
May 13 08:53 NNE 21 16.09 Clear CLR 4 3     89% 0   1015.2 1015.5      
May 13 01:12 N 5 16.09 Clear CLR 2 2     100% 1   1020.7        
May 11 19:53 SSE 24 16.09 Mostly Cloudy BKN085 9 0     52% 6   1013.9 1014.2      
May 11 16:53 S 28 16.09 Mostly Cloudy FEW050 SCT080 BKN095 11 -1     46%     1012.5 1012.6      
May 11 14:53 SW 17 16.09 Cloudy BKN050 OVC070 8 3     73% 5   1011.5 1011.7 0    
Jun 11 10:53 SE 13 16.09 Cloudy OVC080 12 4     61%     1008.8 1009      
Jun 11 09:53 W 8 16.09 Cloudy OVC080 11 6     74%     1008.8 1008.7      
Jun 10 08:53 Calm 4.83 Fog/Mist SCT002 9 9     100%     1008.5 1008.8      
Notice The following observation data may not be complete
Jun 09 13:21   16.09 Light Rain FEW004 OVC095          %         0    
Jun 06 09:53 NNE 24 16.09 Clear CLR 11 7     74%     1009.2 1009.1      
Jun 05 17:53 N 30 16.09 Clear CLR 13 7     69%     1008.5 1008.6      
Jun 05 12:53 Calm 16.09 Light Rain OVC055 8 7     90%     1009.8 1010.1 0 0